QPF
0.00 0.00 0.00 0.00 0.00 0.00 0.00 0.00 0.00 0.00 0.00 0.00 0.00 0.00 0.00 0.00 0.00 0.00 0.00 0.00 0.00 0.00 0.00 0.00 0.00 0.00 0.00 0.01 0.01 0.00 0.00 0.00 0.00 0.00 0.00 0.00 0.00 0.00 0.00 0.00 0.01 0.01 0.02 0.06 0.10 0.02 0.00 0.00 0.00
0.00 0.00 0.00 0.00 0.00 0.00 0.00 0.00 0.00 0.00 0.00 0.00 0.00 0.00 0.00 0.00 0.00 0.00 0.00 0.00 0.00 0.00 0.00 0.00 0.00 0.00 0.00 0.01 0.01 0.00 0.00 0.00 0.00 0.00 0.00 0.00 0.00 0.00 0.00 0.00 0.01 0.02 0.04 0.03 0.01 0.00 0.00 0.00 0.00
0.00 0.00 0.00 0.00 0.00 0.00 0.00 0.00 0.00 0.00 0.00 0.00 0.00 0.00 0.00 0.00 0.00 0.00 0.00 0.00 0.00 0.00 0.00 0.00 0.00 0.00 0.00 0.01 0.01 0.00 0.00 0.00 0.00 0.00 0.00 0.00 0.00 0.00 0.00 0.00 0.00 0.00 0.00 0.00 0.00 0.00 0.00 0.00 0.00
0.00 0.00 0.00 0.00 0.00 0.00 0.00 0.00 0.00 0.00 0.00 0.00 0.00 0.00 0.00 0.00 0.00 0.00 0.00 0.00 0.00 0.00 0.00 0.00 0.00 0.00 0.01 0.01 0.01 0.00 0.01 0.00 0.00 0.00 0.00 0.00 0.00 0.00 0.00 0.00 0.00 0.00 0.00 0.00 0.00 0.00 0.00 0.00 0.00
0.00 0.00 0.00 0.00 0.00 0.00 0.00 0.00 0.00 0.00 0.00 0.00 0.00 0.00 0.00 0.00 0.00 0.00 0.00 0.00 0.00 0.00 0.00 0.00 0.00 0.00 0.00 0.00 0.00 0.00 0.00 0.00 0.00 0.00 0.00 0.00 0.00 0.00 0.00 0.00 0.00 0.00 0.00 0.00 0.00 0.00 0.00 0.00 0.00
0.00 0.00 0.00 0.00 0.00 0.00 0.00 0.00 0.00 0.00 0.00 0.00 0.00 0.00 0.00 0.00 0.00 0.00 0.00 0.00 0.00 0.00 0.00 0.00 0.00 0.00 0.00 0.00 0.00 0.00 0.00 0.00 0.00 0.00 0.00 0.00 0.00 0.00 0.00 0.00 0.00 0.00 0.00 0.00 0.00 0.00 0.00 0.00 0.00
0.00 0.00 0.00 0.00 0.00 0.00 0.00 0.00 0.00 0.00 0.00 0.00 0.00 0.00 0.00 0.00 0.00 0.00 0.00 0.00 0.00 0.00 0.00 0.00 0.00 0.00 0.00 0.00 0.00 0.00 0.00 0.01 0.00 0.00 0.00 0.00 0.00 0.00 0.00 0.00 0.00 0.00 0.00 0.00 0.00 0.00 0.00 0.00 0.00
0.00 0.00 0.00 0.00 0.00 0.00 0.00 0.00 0.00 0.00 0.00 0.00 0.00 0.00 0.00 0.00 0.00 0.00 0.00 0.00 0.00 0.00 0.00 0.00 0.00 0.00 0.00 0.00 0.00 0.00 0.00 0.00 0.00 0.00 0.00 0.00 0.00 0.00 0.00 0.00 0.00 0.00 0.00 0.00 0.00 0.00 0.00 0.00 0.00
0.00 0.00 0.00 0.00 0.00 0.00 0.00 0.00 0.00 0.00 0.00 0.00 0.00 0.00 0.00 0.00 0.00 0.00 0.00 0.00 0.00 0.00 0.00 0.00 0.00 0.00 0.00 0.00 0.00 0.00 0.00 0.00 0.00 0.00 0.00 0.00 0.00 0.00 0.00 0.00 0.00 0.00 0.00 0.00 0.00 0.00 0.00 0.00 0.00
0.00 0.00 0.00 0.00 0.00 0.00 0.00 0.00 0.00 0.00 0.00 0.00 0.00 0.00 0.00 0.00 0.00 0.00 0.00 0.00 0.00 0.00 0.00 0.00 0.00 0.00 0.00 0.00 0.00 0.00 0.00 0.00 0.00 0.00 0.00 0.00 0.00 0.00 0.00 0.00 0.00 0.00 0.01 0.00 0.01 0.00 0.00 0.00 0.00
0.00 0.00 0.00 0.00 0.00 0.00 0.00 0.00 0.00 0.00 0.00 0.00 0.00 0.00 0.00 0.00 0.00 0.00 0.00 0.00 0.00 0.00 0.00 0.00 0.00 0.00 0.00 0.00 0.00 0.00 0.00 0.00 0.00 0.00 0.00 0.00 0.00 0.00 0.00 0.00 0.00 0.00 0.00 0.00 0.00 0.00 0.00 0.00 0.00
0.00 0.00 0.00 0.00 0.00 0.00 0.00 0.00 0.00 0.00 0.00 0.00 0.00 0.00 0.00 0.00 0.00 0.00 0.01 0.01 0.01 0.01 0.00 0.00 0.00 0.00 0.00 0.00 0.00 0.00 0.00 0.00 0.00 0.00 0.00 0.00 0.00 0.00 0.00 0.00 0.00 0.00 0.00 0.00 0.00 0.00 0.00 0.00 0.00
0.00 0.00 0.00 0.00 0.00 0.00 0.00 0.00 0.00 0.00 0.00 0.00 0.00 0.00 0.00 0.00 0.00 0.00 0.00 0.00 0.00 0.00 0.00 0.00 0.01 0.00 0.02 0.02 0.01 0.00 0.00 0.00 0.00 0.00 0.00 0.00 0.00 0.00 0.00 0.00 0.00 0.00 0.00 0.00 0.00 0.00 0.00 0.00 0.00
0.00 0.00 0.00 0.00 0.00 0.00 0.00 0.00 0.00 0.00 0.00 0.00 0.00 0.00 0.00 0.00 0.00 0.00 0.00 0.00 0.00 0.00 0.00 0.00 0.00 0.00 0.00 0.02 0.02 0.00 0.00 0.00 0.00 0.00 0.00 0.00 0.00 0.00 0.00 0.00 0.00 0.00 0.00 0.00 0.00 0.00 0.00 0.00 0.00
0.00 0.00 0.00 0.00 0.00 0.00 0.00 0.00 0.00 0.00 0.00 0.00 0.00 0.00 0.00 0.00 0.00 0.00 0.00 0.00 0.00 0.00 0.00 0.00 0.00 0.00 0.00 0.00 0.02 0.01 0.01 0.00 0.00 0.00 0.00 0.00 0.00 0.00 0.00 0.00 0.00 0.00 0.00 0.00 0.00 0.00 0.00 0.00 0.00
0.00 0.00 0.00 0.00 0.00 0.00 0.00 0.00 0.00 0.00 0.00 0.00 0.00 0.00 0.00 0.00 0.00 0.00 0.00 0.00 0.00 0.00 0.00 0.00 0.00 0.00 0.00 0.01 0.02 0.02 0.04 0.02 0.01 0.00 0.00 0.00 0.00 0.00 0.00 0.00 0.00 0.00 0.00 0.00 0.00 0.00 0.00 0.00 0.00
0.00 0.00 0.00 0.00 0.00 0.00 0.00 0.00 0.00 0.00 0.00 0.00 0.00 0.00 0.00 0.00 0.00 0.00 0.00 0.00 0.00 0.00 0.00 0.00 0.00 0.00 0.01 0.02 0.02 0.05 0.05 0.05 0.01 0.00 0.00 0.00 0.00 0.00 0.00 0.00 0.00 0.00 0.00 0.00 0.00 0.00 0.00 0.00 0.00
0.00 0.00 0.00 0.00 0.00 0.00 0.00 0.00 0.00 0.00 0.00 0.00 0.00 0.00 0.00 0.00 0.00 0.00 0.00 0.00 0.00 0.00 0.00 0.00 0.00 0.00 0.00 0.00 0.01 0.01 0.01 0.00 0.00 0.00 0.01 0.03 0.02 0.01 0.00 0.00 0.00 0.00 0.00 0.00 0.00 0.00 0.00 0.00 0.00
0.00 0.00 0.00 0.00 0.00 0.00 0.00 0.00 0.00 0.00 0.00 0.00 0.00 0.00 0.00 0.00 0.00 0.00 0.00 0.00 0.00 0.00 0.00 0.00 0.00 0.00 0.00 0.00 0.00 0.00 0.00 0.02 0.01 0.00 0.06 0.01 0.03 0.03 0.01 0.00 0.00 0.00 0.00 0.00 0.00 0.00 0.00 0.00 0.00
0.00 0.00 0.00 0.00 0.00 0.00 0.00 0.00 0.00 0.00 0.00 0.00 0.00 0.00 0.00 0.00 0.00 0.00 0.00 0.00 0.00 0.00 0.00 0.00 0.00 0.00 0.00 0.00 0.00 0.00 0.00 0.00 0.00 0.02 0.02 0.00 0.02 0.02 0.04 0.02 0.00 0.00 0.00 0.00 0.00 0.00 0.00 0.00 0.00
0.00 0.00 0.00 0.00 0.00 0.00 0.00 0.00 0.00 0.00 0.00 0.00 0.00 0.00 0.00 0.00 0.00 0.00 0.00 0.00 0.00 0.00 0.00 0.00 0.00 0.00 0.00 0.00 0.00 0.00 0.00 0.00 0.00 0.00 0.00 0.00 0.00 0.02 0.04 0.02 0.01 0.03 0.01 0.00 0.00 0.00 0.00 0.00 0.00
0.00 0.00 0.00 0.00 0.00 0.00 0.00 0.00 0.00 0.00 0.00 0.00 0.00 0.00 0.00 0.00 0.00 0.00 0.00 0.00 0.00 0.00 0.00 0.00 0.00 0.00 0.00 0.00 0.00 0.00 0.00 0.00 0.00 0.00 0.00 0.00 0.00 0.02 0.04 0.03 0.04 0.05 0.03 0.01 0.01 0.00 0.01 0.02 0.01
0.00 0.00 0.00 0.00 0.00 0.00 0.00 0.00 0.00 0.00 0.00 0.00 0.00 0.00 0.00 0.00 0.00 0.00 0.00 0.00 0.00 0.00 0.00 0.00 0.00 0.00 0.00 0.00 0.00 0.00 0.00 0.00 0.00 0.00 0.00 0.00 0.00 0.02 0.05 0.04 0.04 0.02 0.03 0.03 0.02 0.02 0.02 0.01 0.01
0.00 0.00 0.00 0.00 0.00 0.00 0.00 0.00 0.00 0.00 0.00 0.00 0.00 0.00 0.00 0.00 0.00 0.00 0.00 0.00 0.00 0.00 0.00 0.00 0.00 0.00 0.00 0.00 0.00 0.00 0.00 0.00 0.00 0.00 0.01 0.01 0.00 0.01 0.04 0.04 0.02 0.03 0.02 0.02 0.03 0.05 0.04 0.03 0.03
0.00 0.00 0.00 0.00 0.00 0.00 0.00 0.00 0.00 0.00 0.00 0.00 0.00 0.00 0.00 0.00 0.00 0.00 0.00 0.00 0.00 0.00 0.00 0.00 0.00 0.00 0.00 0.00 0.00 0.00 0.00 0.00 0.00 0.00 0.01 0.01 0.00 0.00 0.01 0.02 0.04 0.02 0.04 0.06 0.08 0.05 0.04 0.04 0.04
0.00 0.00 0.00 0.00 0.00 0.00 0.00 0.00 0.00 0.00 0.00 0.00 0.00 0.00 0.00 0.00 0.00 0.00 0.00 0.00 0.00 0.00 0.00 0.00 0.00 0.00 0.00 0.00 0.00 0.00 0.00 0.00 0.00 0.01 0.00 0.00 0.00 0.00 0.00 0.04 0.05 0.06 0.06 0.06 0.11 0.08 0.04 0.03 0.02
0.00 0.00 0.00 0.00 0.00 0.00 0.00 0.00 0.00 0.00 0.00 0.00 0.00 0.00 0.00 0.00 0.00 0.00 0.00 0.00 0.00 0.00 0.00 0.00 0.00 0.00 0.00 0.00 0.00 0.00 0.00 0.00 0.00 0.00 0.00 0.00 0.00 0.00 0.00 0.01 0.02 0.03 0.05 0.08 0.07 0.08 0.07 0.04 0.01
0.00 0.00 0.00 0.00 0.00 0.00 0.00 0.00 0.00 0.00 0.00 0.00 0.00 0.00 0.00 0.00 0.00 0.00 0.00 0.00 0.00 0.00 0.00 0.00 0.00 0.00 0.00 0.00 0.00 0.00 0.00 0.00 0.00 0.00 0.00 0.00 0.00 0.00 0.00 0.00 0.00 0.00 0.01 0.03 0.04 0.05 0.05 0.04 0.02
0.00 0.00 0.00 0.00 0.00 0.00 0.00 0.00 0.00 0.00 0.00 0.00 0.00 0.00 0.00 0.00 0.00 0.00 0.00 0.00 0.00 0.00 0.00 0.00 0.00 0.00 0.00 0.00 0.00 0.00 0.00 0.00 0.00 0.00 0.00 0.00 0.00 0.00 0.00 0.00 0.00 0.00 0.00 0.01 0.01 0.01 0.01 0.01 0.00
0.00 0.00 0.00 0.00 0.00 0.00 0.00 0.00 0.00 0.00 0.00 0.00 0.00 0.00 0.00 0.00 0.00 0.00 0.00 0.00 0.00 0.00 0.00 0.00 0.00 0.00 0.00 0.00 0.00 0.00 0.00 0.00 0.00 0.00 0.00 0.00 0.00 0.00 0.00 0.00 0.00 0.00 0.00 0.00 0.00 0.00 0.00 0.01 0.01
MSLP
1015.00 1015.12 1015.27 1015.56 1016.88 1017.30 1016.89 1016.25 1015.72 1015.11 1014.64 1013.95 1013.65 1013.44 1013.14 1012.85 1012.63 1013.35 1013.34 1013.44 1013.48 1013.72 1013.84 1014.35 1014.79 1015.27 1015.61 1015.90 1016.23 1016.60 1016.89 1017.26 1017.64 1017.98 1018.31 1018.52 1018.66 1018.72 1018.73 1018.85 1018.87 1018.72 1019.00 1019.23 1019.54 1019.63 1019.97 1020.23 1020.40
1015.08 1015.07 1015.61 1016.46 1017.00 1017.31 1016.89 1016.10 1015.56 1014.93 1014.34 1013.92 1013.45 1013.18 1013.06 1012.55 1012.73 1013.22 1013.33 1013.51 1013.50 1013.72 1014.00 1014.45 1014.93 1015.30 1015.64 1015.97 1016.35 1016.77 1017.10 1017.41 1017.71 1017.91 1018.26 1018.68 1018.81 1018.85 1018.94 1019.05 1019.17 1019.20 1019.41 1019.62 1019.80 1020.04 1020.28 1020.40 1020.55
1015.07 1015.20 1016.09 1016.78 1017.13 1016.94 1016.57 1015.69 1015.25 1014.87 1014.42 1013.90 1013.38 1013.13 1012.94 1012.86 1012.97 1013.11 1013.28 1013.54 1013.55 1013.83 1014.12 1014.62 1015.08 1015.41 1015.58 1015.97 1016.43 1016.87 1017.19 1017.58 1017.86 1018.01 1018.42 1018.75 1018.95 1019.10 1019.15 1019.25 1019.54 1019.69 1019.83 1020.00 1020.15 1020.30 1020.48 1020.57 1020.71
1015.30 1015.91 1017.11 1017.08 1016.91 1016.61 1016.04 1015.44 1015.25 1014.94 1014.43 1013.97 1013.79 1013.34 1013.08 1013.05 1013.17 1013.17 1013.46 1013.74 1014.03 1014.22 1014.40 1014.82 1015.15 1015.39 1015.69 1016.10 1016.53 1017.06 1017.37 1017.61 1017.87 1018.21 1018.57 1018.90 1019.14 1019.27 1019.29 1019.42 1019.69 1019.98 1020.16 1020.33 1020.43 1020.55 1020.68 1020.85 1020.94
1015.68 1016.26 1016.96 1017.19 1016.69 1016.33 1016.01 1015.49 1015.19 1014.80 1014.60 1014.07 1013.91 1013.48 1013.22 1013.18 1013.58 1013.68 1013.70 1013.95 1014.25 1014.59 1014.74 1015.01 1015.20 1015.49 1015.84 1016.26 1016.68 1017.08 1017.41 1017.69 1017.95 1018.26 1018.70 1019.06 1019.28 1019.47 1019.64 1019.86 1020.16 1020.33 1020.45 1020.52 1020.62 1020.80 1020.91 1021.02 1021.19
1016.10 1016.39 1016.95 1016.89 1016.42 1016.16 1015.82 1015.30 1015.12 1014.78 1014.47 1014.03 1013.87 1013.55 1013.39 1013.52 1013.79 1013.95 1013.96 1014.09 1014.24 1014.87 1015.12 1015.31 1015.52 1015.82 1016.10 1016.46 1016.83 1017.15 1017.38 1017.65 1017.99 1018.41 1018.78 1019.12 1019.37 1019.65 1019.92 1020.15 1020.38 1020.52 1020.59 1020.63 1020.68 1020.83 1020.98 1021.05 1021.24
1015.77 1016.21 1016.45 1016.36 1016.21 1015.93 1015.49 1015.18 1014.85 1014.61 1014.35 1013.93 1013.71 1013.60 1013.33 1013.58 1013.97 1014.16 1014.26 1014.41 1014.58 1014.89 1015.34 1015.55 1015.71 1016.13 1016.48 1016.70 1016.87 1017.23 1017.46 1017.68 1018.06 1018.47 1018.83 1019.18 1019.41 1019.75 1020.10 1020.26 1020.43 1020.54 1020.58 1020.67 1020.79 1020.95 1021.09 1021.17 1021.33
1015.89 1016.05 1016.45 1016.19 1015.93 1015.37 1015.00 1014.85 1014.42 1014.35 1014.11 1013.81 1013.74 1013.66 1013.64 1013.95 1014.18 1014.45 1014.66 1014.75 1014.96 1015.13 1015.23 1015.63 1015.92 1016.28 1016.53 1016.70 1016.93 1017.19 1017.49 1017.81 1018.13 1018.56 1018.92 1019.30 1019.67 1019.91 1020.10 1020.34 1020.52 1020.57 1020.62 1020.74 1020.90 1021.04 1021.20 1021.27 1021.49
1015.93 1016.21 1016.10 1015.64 1015.61 1015.15 1014.96 1014.84 1014.43 1014.23 1014.24 1014.07 1013.91 1014.00 1014.00 1013.94 1014.38 1014.68 1014.88 1015.03 1015.17 1015.34 1015.47 1015.70 1016.02 1016.29 1016.53 1016.78 1016.97 1017.22 1017.49 1017.88 1018.29 1018.63 1019.05 1019.46 1019.66 1019.94 1020.23 1020.43 1020.54 1020.64 1020.76 1020.89 1021.02 1021.24 1021.52 1021.67 1021.82
1015.84 1015.91 1015.50 1015.12 1014.90 1014.73 1014.71 1014.66 1014.48 1014.46 1014.54 1014.32 1014.22 1014.21 1014.38 1014.28 1014.42 1014.64 1014.88 1015.08 1015.07 1015.28 1015.62 1015.90 1016.01 1016.27 1016.56 1016.80 1017.00 1017.18 1017.35 1017.66 1018.11 1018.50 1018.86 1019.29 1019.61 1019.82 1020.09 1020.38 1020.57 1020.65 1020.74 1020.93 1021.05 1021.38 1021.73 1021.87 1021.96
1015.79 1015.53 1015.40 1014.98 1014.69 1014.61 1014.77 1014.82 1014.64 1014.52 1014.47 1014.36 1014.44 1014.47 1014.44 1014.57 1014.71 1014.79 1014.95 1015.12 1015.27 1015.31 1015.59 1015.82 1016.05 1016.28 1016.55 1016.70 1016.97 1017.23 1017.41 1017.69 1017.98 1018.33 1018.72 1019.13 1019.54 1019.79 1019.97 1020.24 1020.49 1020.59 1020.83 1020.98 1021.22 1021.57 1021.80 1022.01 1022.13
1015.78 1015.46 1015.14 1014.82 1014.75 1014.81 1014.96 1014.89 1014.88 1014.67 1014.28 1014.30 1014.49 1014.52 1014.47 1014.55 1014.76 1014.85 1015.00 1015.00 1015.16 1015.18 1015.31 1015.59 1015.75 1016.02 1016.33 1016.52 1016.74 1017.00 1017.31 1017.62 1017.86 1018.19 1018.53 1018.85 1019.23 1019.60 1019.83 1020.07 1020.36 1020.54 1020.72 1020.96 1021.27 1021.55 1021.85 1022.14 1022.36
1015.51 1015.33 1015.16 1014.87 1014.85 1014.89 1014.94 1015.04 1015.06 1014.72 1014.57 1014.46 1014.67 1014.66 1014.58 1014.56 1014.48 1014.54 1014.72 1014.94 1014.99 1014.91 1014.89 1015.14 1015.31 1015.56 1016.01 1016.41 1016.59 1016.74 1016.99 1017.31 1017.63 1017.96 1018.36 1018.61 1018.88 1019.13 1019.49 1019.83 1020.20 1020.45 1020.79 1020.92 1021.21 1021.48 1021.80 1022.09 1022.33
1015.14 1015.27 1015.19 1015.02 1014.97 1014.93 1015.11 1015.12 1015.22 1014.71 1014.50 1014.63 1014.78 1014.62 1014.58 1014.51 1014.38 1014.34 1014.41 1014.45 1014.52 1014.47 1014.47 1014.80 1014.93 1015.10 1015.45 1015.99 1016.00 1016.15 1016.58 1016.83 1017.21 1017.51 1017.92 1018.31 1018.58 1018.81 1019.14 1019.48 1019.98 1020.37 1020.72 1020.97 1021.21 1021.42 1021.59 1021.89 1022.21
1015.20 1015.62 1015.50 1015.16 1015.22 1015.15 1015.16 1015.19 1014.95 1014.45 1014.56 1014.51 1014.48 1014.70 1014.57 1014.47 1014.24 1014.01 1013.79 1013.90 1013.92 1013.88 1013.89 1014.02 1014.40 1014.64 1015.06 1015.28 1015.59 1015.80 1015.90 1016.30 1016.51 1016.80 1017.35 1017.82 1018.28 1018.50 1018.70 1019.00 1019.54 1019.94 1020.39 1020.81 1021.22 1021.63 1021.87 1021.99 1022.25
1015.52 1015.81 1015.92 1015.22 1015.15 1015.15 1015.29 1014.97 1014.59 1014.50 1014.76 1014.62 1014.58 1014.47 1014.74 1014.25 1014.15 1013.88 1013.73 1013.77 1013.66 1013.65 1013.59 1013.51 1013.70 1014.04 1014.39 1014.64 1014.96 1015.32 1015.57 1015.97 1015.88 1016.30 1016.81 1017.18 1017.65 1018.04 1018.34 1018.58 1018.96 1019.44 1020.00 1020.53 1020.97 1021.41 1021.78 1021.95 1022.18
1015.80 1015.89 1015.97 1015.50 1015.13 1015.13 1015.19 1015.12 1014.74 1014.78 1014.93 1014.80 1014.64 1014.41 1014.37 1014.20 1013.82 1013.41 1013.29 1013.35 1013.10 1013.11 1013.15 1013.23 1013.36 1013.45 1013.72 1014.03 1014.25 1014.71 1015.07 1015.39 1015.42 1015.73 1016.09 1016.57 1017.00 1017.45 1017.90 1018.16 1018.37 1018.87 1019.41 1020.07 1020.62 1021.17 1021.42 1021.75 1022.12
1015.34 1015.93 1015.97 1015.71 1015.54 1015.46 1015.62 1015.61 1015.18 1014.67 1014.95 1014.87 1014.67 1014.21 1013.83 1013.79 1013.20 1012.84 1012.64 1012.51 1012.49 1012.55 1012.60 1012.71 1012.79 1012.92 1013.05 1013.36 1013.82 1014.27 1014.71 1014.87 1014.93 1015.11 1015.19 1015.70 1016.14 1016.69 1017.21 1017.61 1017.96 1018.41 1018.91 1019.44 1020.14 1020.67 1021.34 1021.44 1021.69
1015.03 1015.62 1015.89 1015.81 1015.79 1015.84 1015.83 1015.71 1015.08 1014.90 1014.66 1014.44 1014.11 1013.85 1013.46 1013.06 1012.91 1012.74 1012.56 1012.36 1012.32 1012.15 1012.21 1012.26 1012.31 1012.26 1012.53 1012.82 1013.15 1013.54 1013.75 1013.89 1014.21 1014.26 1014.41 1014.71 1015.13 1015.73 1016.34 1016.64 1017.21 1017.89 1018.28 1018.68 1019.30 1020.21 1020.86 1021.37 1021.75
1015.11 1015.66 1016.01 1016.12 1016.16 1016.21 1016.15 1015.76 1014.61 1014.20 1014.16 1014.10 1013.95 1013.74 1013.59 1013.49 1013.26 1013.00 1012.75 1012.46 1012.29 1012.13 1012.00 1011.91 1011.96 1011.96 1011.97 1011.94 1012.05 1012.35 1012.69 1013.00 1013.20 1013.53 1013.83 1013.92 1014.23 1014.62 1015.15 1015.74 1016.32 1016.99 1017.70 1018.38 1018.86 1019.31 1020.17 1020.87 1021.39
1015.32 1015.60 1016.15 1016.57 1016.71 1016.94 1016.65 1015.49 1014.67 1014.46 1014.49 1014.48 1014.43 1014.14 1013.84 1013.86 1013.74 1013.27 1013.00 1012.69 1012.42 1012.14 1012.06 1011.90 1011.60 1011.57 1011.59 1011.51 1011.54 1011.80 1012.33 1012.73 1012.80 1013.14 1013.19 1013.19 1013.37 1013.62 1014.00 1014.48 1015.08 1015.83 1016.82 1017.44 1018.05 1018.58 1018.95 1019.81 1020.89
1015.52 1015.93 1016.45 1017.06 1017.27 1017.98 1017.70 1016.90 1015.18 1014.96 1014.95 1015.06 1014.95 1014.81 1014.65 1014.35 1014.00 1013.77 1013.47 1012.95 1012.65 1012.37 1012.04 1011.87 1011.55 1011.30 1011.17 1011.16 1011.10 1011.15 1011.23 1011.38 1011.50 1011.71 1011.97 1012.31 1012.70 1012.97 1013.32 1013.58 1014.15 1014.88 1015.60 1016.40 1016.85 1017.68 1018.21 1018.86 1019.60
1016.18 1016.44 1017.05 1017.60 1018.17 1018.73 1018.50 1018.06 1015.44 1015.37 1015.23 1015.36 1015.32 1015.18 1015.12 1014.90 1014.47 1014.12 1013.73 1013.25 1012.93 1012.60 1012.20 1011.81 1011.44 1011.09 1010.89 1010.89 1010.82 1010.62 1010.59 1010.52 1010.55 1010.94 1011.35 1011.65 1012.05 1012.27 1012.69 1013.02 1013.39 1013.95 1014.58 1015.21 1016.01 1016.83 1017.42 1017.71 1018.43
1016.68 1017.24 1017.84 1018.67 1019.15 1019.30 1018.74 1018.44 1016.09 1015.55 1015.50 1015.62 1015.46 1015.29 1015.29 1015.05 1014.65 1014.16 1013.75 1013.40 1012.97 1012.57 1012.14 1011.67 1011.33 1011.05 1010.81 1010.64 1010.69 1010.72 1010.54 1010.45 1010.40 1010.48 1010.64 1010.83 1011.25 1011.53 1011.85 1012.25 1012.76 1013.22 1013.65 1014.08 1014.66 1015.48 1016.39 1016.98 1017.66
1017.25 1017.88 1018.90 1019.67 1019.83 1019.48 1019.11 1018.84 1016.16 1015.61 1015.50 1015.46 1015.40 1015.30 1015.16 1014.87 1014.38 1013.89 1013.46 1013.24 1012.99 1012.69 1012.25 1011.65 1011.31 1011.10 1010.92 1010.68 1010.60 1010.55 1010.39 1010.27 1010.16 1010.17 1010.09 1010.31 1010.60 1010.90 1010.97 1011.29 1011.98 1012.50 1012.93 1013.49 1014.07 1014.89 1015.62 1016.31 1016.89
1017.54 1018.12 1018.62 1019.31 1020.17 1019.86 1019.58 1018.12 1015.86 1015.51 1015.39 1015.30 1015.20 1015.07 1014.92 1014.57 1014.24 1014.02 1013.78 1013.64 1013.31 1012.82 1012.36 1011.90 1011.50 1011.10 1010.83 1010.62 1010.43 1010.32 1010.21 1010.06 1009.65 1009.55 1009.50 1009.60 1009.87 1010.01 1010.30 1010.62 1010.88 1011.29 1012.08 1012.90 1013.88 1014.63 1015.08 1015.71 1016.49
1017.91 1018.52 1019.14 1019.92 1021.00 1020.39 1018.69 1017.34 1015.87 1015.37 1015.37 1015.23 1014.73 1014.36 1014.11 1013.95 1013.84 1013.73 1013.69 1013.62 1013.33 1012.92 1012.48 1012.09 1011.67 1011.18 1010.95 1010.75 1010.47 1010.15 1009.95 1009.81 1009.54 1009.28 1009.31 1009.22 1009.23 1009.35 1009.74 1010.32 1010.85 1011.40 1011.93 1012.62 1013.48 1013.98 1014.79 1015.52 1016.22
1017.60 1018.71 1019.63 1020.33 1020.79 1020.14 1018.49 1017.28 1015.74 1015.37 1015.19 1014.99 1014.52 1014.41 1014.28 1014.02 1013.72 1013.57 1013.52 1013.49 1013.21 1012.99 1012.67 1012.15 1011.80 1011.41 1011.12 1010.90 1010.58 1010.31 1010.06 1009.78 1009.50 1009.24 1008.97 1008.93 1009.05 1009.31 1009.66 1010.17 1010.71 1011.21 1011.79 1012.39 1013.16 1013.90 1014.63 1015.41 1016.20
1018.59 1019.05 1019.83 1020.27 1020.66 1020.04 1019.02 1016.41 1014.87 1014.75 1014.81 1014.66 1014.36 1014.02 1013.90 1013.80 1013.80 1013.74 1013.61 1013.61 1013.53 1013.26 1013.04 1012.67 1012.31 1011.99 1011.66 1011.34 1010.92 1010.44 1010.12 1009.98 1009.65 1009.23 1009.09 1009.11 1009.22 1009.35 1009.62 1010.02 1010.55 1011.17 1011.75 1012.30 1012.99 1013.73 1014.40 1015.25 1016.11
1018.41 1019.00 1019.52 1020.16 1021.05 1020.84 1019.83 1016.43 1014.82 1014.75 1014.69 1014.55 1014.23 1013.95 1013.73 1013.77 1013.89 1014.00 1014.05 1014.07 1014.04 1013.75 1013.36 1013.11 1012.86 1012.51 1012.08 1011.71 1011.14 1010.62 1010.22 1009.77 1009.49 1009.44 1009.18 1009.30 1009.47 1009.55 1009.67 1010.14 1010.61 1011.22 1011.85 1012.47 1013.14 1013.82 1014.83 1015.59 1016.51
Thickness
5687 5692 5696 5694 5675 5669 5668 5684 5693 5700 5709 5725 5728 5729 5733 5740 5743 5737 5760 5763 5764 5763 5762 5758 5755 5751 5750 5748 5745 5742 5740 5737 5733 5730 5728 5727 5726 5725 5725 5723 5723 5723 5721 5719 5717 5716 5714 5712 5710
5681 5686 5685 5672 5662 5657 5670 5681 5688 5700 5715 5718 5722 5728 5731 5738 5750 5750 5754 5760 5761 5759 5757 5754 5751 5748 5746 5743 5740 5737 5734 5731 5729 5727 5724 5721 5720 5720 5719 5718 5717 5716 5714 5713 5711 5710 5708 5706 5705
5675 5679 5669 5660 5650 5661 5671 5680 5690 5702 5709 5713 5721 5730 5732 5736 5746 5750 5756 5757 5757 5756 5754 5750 5747 5744 5744 5741 5736 5733 5730 5727 5725 5724 5721 5718 5716 5714 5714 5712 5710 5709 5708 5706 5705 5704 5702 5701 5700
5664 5664 5654 5648 5655 5666 5678 5686 5689 5695 5706 5712 5715 5718 5733 5741 5744 5751 5752 5752 5750 5749 5748 5746 5744 5742 5740 5737 5734 5729 5726 5724 5722 5720 5717 5715 5712 5711 5710 5708 5706 5704 5702 5700 5699 5698 5697 5696 5695
5653 5650 5638 5638 5656 5668 5671 5679 5687 5692 5694 5704 5710 5715 5723 5737 5740 5744 5747 5746 5744 5743 5743 5740 5740 5737 5736 5733 5730 5727 5724 5721 5719 5717 5714 5710 5708 5706 5704 5701 5699 5697 5696 5695 5695 5693 5692 5690 5688
5638 5642 5630 5641 5657 5666 5671 5679 5684 5688 5692 5702 5705 5710 5721 5733 5734 5737 5741 5741 5739 5737 5735 5734 5733 5731 5730 5727 5725 5722 5721 5719 5716 5712 5709 5707 5704 5702 5699 5697 5694 5692 5691 5691 5690 5688 5687 5686 5684
5633 5635 5635 5645 5656 5661 5668 5675 5680 5683 5688 5696 5707 5706 5722 5726 5728 5731 5733 5733 5733 5730 5726 5726 5726 5724 5722 5722 5721 5718 5716 5714 5711 5708 5705 5702 5700 5698 5694 5693 5691 5690 5689 5687 5686 5684 5682 5681 5680
5628 5633 5623 5637 5649 5662 5670 5671 5682 5683 5689 5701 5706 5702 5711 5717 5722 5723 5724 5725 5725 5724 5723 5720 5719 5717 5716 5716 5716 5714 5711 5710 5707 5703 5700 5697 5694 5693 5691 5689 5686 5686 5685 5683 5682 5680 5678 5677 5675
5622 5619 5622 5644 5645 5661 5667 5667 5677 5686 5686 5692 5700 5703 5709 5714 5714 5714 5715 5715 5716 5716 5716 5715 5714 5712 5711 5710 5710 5709 5707 5704 5701 5698 5695 5692 5689 5687 5685 5683 5682 5681 5680 5678 5677 5674 5672 5672 5670
5615 5616 5629 5648 5652 5658 5663 5665 5669 5675 5675 5683 5690 5697 5701 5706 5707 5707 5707 5707 5709 5709 5708 5709 5709 5708 5707 5706 5705 5703 5702 5699 5696 5694 5691 5688 5685 5683 5681 5679 5678 5676 5675 5673 5672 5669 5667 5666 5665
5609 5619 5628 5642 5648 5656 5657 5658 5664 5666 5670 5678 5679 5687 5694 5698 5700 5702 5703 5703 5702 5705 5705 5706 5705 5704 5703 5702 5699 5697 5696 5694 5692 5689 5686 5684 5680 5678 5677 5675 5672 5671 5670 5668 5665 5663 5661 5659 5658
5604 5615 5624 5637 5642 5646 5648 5655 5654 5660 5672 5679 5679 5685 5690 5692 5694 5695 5696 5699 5701 5702 5703 5703 5702 5700 5699 5697 5696 5694 5692 5689 5687 5684 5682 5680 5678 5675 5673 5671 5668 5666 5664 5663 5660 5658 5656 5653 5651
5600 5610 5619 5630 5633 5639 5646 5646 5649 5656 5664 5672 5673 5677 5683 5686 5691 5694 5695 5695 5697 5700 5701 5700 5699 5698 5695 5693 5692 5691 5689 5686 5683 5681 5679 5677 5675 5674 5671 5668 5664 5661 5658 5657 5655 5653 5650 5648 5646
5599 5605 5612 5620 5626 5632 5634 5639 5641 5655 5657 5661 5664 5672 5676 5680 5686 5690 5692 5692 5695 5698 5699 5697 5696 5694 5692 5692 5693 5690 5686 5684 5681 5679 5677 5675 5672 5671 5669 5665 5660 5656 5653 5651 5648 5647 5646 5644 5641
5590 5591 5600 5611 5617 5623 5629 5631 5636 5650 5652 5656 5662 5664 5669 5676 5681 5687 5692 5693 5696 5698 5699 5698 5694 5691 5690 5690 5688 5686 5687 5683 5680 5679 5676 5673 5669 5667 5665 5663 5658 5654 5650 5647 5643 5639 5638 5637 5636
5581 5587 5586 5607 5612 5619 5623 5624 5638 5644 5644 5650 5655 5660 5659 5669 5676 5683 5688 5690 5692 5692 5693 5695 5695 5692 5689 5688 5685 5683 5682 5679 5680 5677 5673 5671 5668 5665 5661 5659 5657 5651 5647 5644 5639 5635 5632 5631 5630
5572 5575 5581 5598 5608 5613 5618 5617 5631 5636 5638 5645 5649 5654 5657 5662 5668 5676 5681 5682 5687 5689 5690 5691 5691 5690 5687 5685 5683 5680 5678 5676 5677 5676 5672 5669 5666 5662 5658 5656 5654 5649 5646 5641 5636 5631 5629 5627 5623
5575 5573 5580 5590 5600 5603 5606 5609 5623 5632 5632 5637 5644 5650 5656 5658 5667 5672 5676 5681 5684 5685 5686 5688 5689 5688 5687 5684 5680 5676 5673 5673 5672 5672 5672 5668 5664 5660 5656 5653 5650 5646 5643 5640 5634 5629 5623 5623 5621
5575 5573 5578 5584 5593 5598 5601 5603 5619 5625 5629 5635 5642 5648 5655 5659 5663 5666 5670 5674 5676 5680 5681 5683 5684 5687 5685 5680 5676 5672 5672 5672 5670 5669 5669 5666 5663 5660 5655 5653 5648 5643 5641 5638 5634 5627 5621 5616 5613
5568 5568 5572 5580 5585 5591 5592 5600 5620 5627 5629 5632 5638 5644 5648 5648 5652 5657 5662 5666 5670 5673 5675 5675 5676 5678 5680 5680 5679 5676 5673 5671 5669 5665 5663 5663 5661 5660 5656 5650 5646 5641 5636 5632 5628 5626 5618 5613 5608
5561 5565 5565 5573 5576 5576 5581 5602 5611 5617 5618 5623 5626 5631 5635 5639 5641 5646 5650 5655 5658 5661 5664 5667 5670 5670 5671 5673 5673 5670 5665 5661 5661 5659 5660 5660 5656 5654 5652 5649 5646 5642 5634 5630 5625 5623 5621 5614 5603
5554 5563 5563 5564 5569 5570 5569 5584 5601 5601 5608 5610 5615 5619 5622 5629 5633 5634 5638 5644 5647 5650 5652 5655 5658 5661 5663 5663 5665 5664 5663 5660 5661 5660 5658 5653 5649 5648 5647 5646 5643 5639 5635 5630 5627 5620 5617 5612 5606
5550 5553 5553 5552 5550 5553 5558 5566 5597 5593 5602 5602 5607 5610 5612 5615 5621 5625 5628 5632 5636 5639 5642 5645 5649 5651 5653 5653 5655 5656 5657 5659 5658 5655 5650 5648 5645 5642 5641 5639 5637 5636 5633 5629 5624 5617 5613 5611 5606
5538 5538 5532 5527 5534 5547 5548 5554 5585 5591 5592 5592 5598 5603 5603 5606 5610 5616 5621 5624 5627 5630 5634 5637 5639 5641 5642 5643 5642 5642 5644 5643 5644 5645 5643 5641 5639 5637 5636 5633 5631 5629 5628 5627 5623 5617 5611 5607 5602
5532 5534 5529 5531 5522 5553 5531 5538 5577 5581 5584 5587 5592 5595 5598 5600 5607 5612 5615 5617 5619 5620 5624 5628 5628 5629 5629 5629 5629 5629 5630 5631 5632 5632 5634 5633 5631 5630 5630 5628 5624 5622 5621 5618 5615 5609 5605 5600 5597
5530 5534 5536 5544 5540 5544 5523 5546 5577 5575 5576 5583 5586 5588 5590 5597 5601 5603 5604 5605 5607 5611 5613 5616 5618 5618 5618 5618 5617 5617 5616 5617 5621 5622 5623 5624 5623 5624 5622 5621 5620 5619 5614 5610 5604 5599 5597 5593 5588
5523 5522 5517 5499 5487 5512 5542 5548 5565 5573 5574 5578 5585 5591 5594 5597 5598 5598 5598 5599 5600 5601 5603 5604 5605 5606 5604 5603 5603 5603 5603 5603 5603 5605 5605 5608 5611 5613 5612 5610 5610 5607 5604 5600 5594 5593 5587 5581 5577
5528 5516 5514 5492 5512 5536 5542 5539 5569 5569 5573 5575 5583 5585 5587 5589 5594 5594 5593 5592 5593 5591 5592 5593 5593 5593 5590 5586 5585 5583 5582 5582 5583 5585 5588 5591 5593 5593 5595 5596 5596 5595 5594 5590 5586 5583 5577 5571 5564
5513 5511 5499 5502 5496 5530 5543 5564 5561 5570 5571 5573 5578 5581 5583 5586 5585 5585 5586 5584 5581 5580 5578 5578 5577 5575 5572 5568 5566 5564 5561 5560 5561 5563 5565 5567 5570 5574 5576 5578 5580 5580 5579 5579 5577 5572 5567 5562 5555
5514 5509 5505 5503 5498 5483 5495 5550 5564 5563 5565 5565 5571 5575 5579 5579 5577 5575 5574 5572 5571 5567 5566 5564 5561 5557 5553 5549 5547 5544 5541 5539 5540 5539 5544 5545 5547 5552 5558 5559 5561 5563 5564 5562 5561 5559 5553 5548 5541